Location: Aressy
(43.2833°N, 0.3167°W)
Time: 21:29:21
(UTC+00:00)

Meteor 2-21 - Visible Passes

Search period start: 05 May 2021 00:00
Search period end: 15 May 2021 00:00
Orbit: 933 x 967 km, 82.5° (Epoch: 05 May)

Date Brightness Start Highest point End Pass type
(mag) Time Alt. Az. Time Alt. Az. Time Alt. Az.
05 May 7.2 20:47:44 10° NW 20:50:37 14° W 20:53:30 10° WSW visible
07 May 6.0 19:36:30 10° NNW 19:42:04 38° W 19:47:40 10° SSW visible
08 May 6.8 19:54:52 10° NNW 19:59:38 25° W 20:04:26 10° SW visible
09 May 7.2 20:13:45 10° NW 20:17:07 15° W 20:20:29 10° WSW visible
13 May 7.2 19:39:50 10° NW 19:43:37 17° W 19:47:23 10° WSW visible
